TimeEDT,TemperatureF,Dew PointF,Humidity,Sea Level PressureIn,VisibilityMPH,Wind Direction,Wind SpeedMPH,Gust SpeedMPH,PrecipitationIn,Events,Conditions,WindDirDegrees,DateUTC
12:54 AM,54.0,53.1,97,29.50,-9999.0,North,-9999.0,-,N/A,,Unknown,0,2012-10-31 04:54:00
1:54 AM,54.0,52.0,93,29.49,-9999.0,North,-9999.0,-,N/A,,Unknown,0,2012-10-31 05:54:00
2:54 AM,52.0,51.1,97,29.49,-9999.0,North,-9999.0,-,N/A,,Unknown,0,2012-10-31 06:54:00
3:54 AM,50.0,48.9,96,29.49,-9999.0,North,-9999.0,-,N/A,,Unknown,0,2012-10-31 07:54:00
4:54 AM,50.0,48.9,96,29.48,-9999.0,North,-9999.0,-,N/A,,Unknown,0,2012-10-31 08:54:00
5:54 AM,48.0,48.0,100,29.46,-9999.0,North,-9999.0,-,N/A,,Unknown,0,2012-10-31 09:54:00
6:54 AM,46.9,46.9,100,29.45,-9999.0,North,-9999.0,-,N/A,,Unknown,0,2012-10-31 10:54:00
7:54 AM,48.0,48.0,100,29.44,-9999.0,North,-9999.0,-,N/A,,Unknown,0,2012-10-31 11:54:00
8:54 AM,48.0,48.0,100,29.43,-9999.0,North,-9999.0,-,N/A,,Unknown,0,2012-10-31 12:54:00
9:54 AM,50.0,50.0,100,29.44,-9999.0,North,-9999.0,-,N/A,,Unknown,0,2012-10-31 13:54:00
10:54 AM,59.0,51.1,75,29.42,-9999.0,North,-9999.0,-,N/A,,Unknown,0,2012-10-31 14:54:00
11:54 AM,54.0,51.1,90,29.44,-9999.0,North,-9999.0,-,0.01,,Unknown,0,2012-10-31 15:54:00
12:54 PM,55.0,50.0,83,29.43,-9999.0,North,-9999.0,-,N/A,,Unknown,0,2012-10-31 16:54:00
1:54 PM,55.0,48.9,80,29.43,-9999.0,North,-9999.0,-,N/A,,Unknown,0,2012-10-31 17:54:00
2:54 PM,51.1,46.9,86,29.45,-9999.0,North,-9999.0,-,N/A,,Unknown,0,2012-10-31 18:54:00
3:54 PM,50.0,45.0,83,29.46,-9999.0,North,-9999.0,-,N/A,,Unknown,0,2012-10-31 19:54:00
4:54 PM,51.1,44.1,77,29.45,-9999.0,North,-9999.0,-,N/A,,Unknown,0,2012-10-31 20:54:00
5:54 PM,50.0,44.1,80,29.46,-9999.0,North,-9999.0,-,N/A,,Unknown,0,2012-10-31 21:54:00
6:54 PM,50.0,44.1,80,29.47,-9999.0,North,-9999.0,-,N/A,,Unknown,0,2012-10-31 22:54:00
7:54 PM,48.9,41.0,74,29.48,-9999.0,North,-9999.0,-,N/A,,Unknown,0,2012-10-31 23:54:00
8:54 PM,48.9,39.9,71,29.49,-9999.0,North,-9999.0,-,N/A,,Unknown,0,2012-11-01 00:54:00
9:54 PM,48.0,39.9,74,29.49,-9999.0,North,-9999.0,-,N/A,,Unknown,0,2012-11-01 01:54:00
10:54 PM,46.9,39.9,77,29.48,-9999.0,North,-9999.0,-,N/A,,Unknown,0,2012-11-01 02:54:00
11:54 PM,46.9,39.9,77,29.49,-9999.0,North,-9999.0,-,N/A,,Unknown,0,2012-11-01 03:54:00